Content
SEND FEEDBACK

Daily
Averages
Monthly
Summary
United States of America

QUINCY, WASHINGTON


Home > North America > United States > Washington
Elevation: 1281 feet     Latitude: 47 11N     Longitude: 119 52W

WEATHER
 
SELECT A DAY
Number of Records: 162,469;   Date Range: 1/1/95 - 8/12/14
 
SHARE

PRINT THIS DATA

[ ← Previous Day ]
WEATHER ALMANAC - JANUARY 31, 2013
[ Next Day → ]
[ °C ]   °F
Weather ElementAverageHighLow
Temperature32.6 °F37.9 °F (3:53 pm)26.1 °F (10:53 pm)
Dewpoint29.2 °F34 °F (3:53 pm)23 °F (10:53 pm)
Humidity87.6 %92 % (5:53 pm)82 % (12:53 pm)
Barometer30.26 in30.30 in (9:53 am)30.22 in (5:53 pm)
Wind Speed4.3 mph9.2 mph (12:53 pm)
Weather ElementAverage
Visibility9.7 mi
Wind DirectionSE (136.4 °)

Weather ElementTotal
Precipitation0.01 in
Heating Degree Days33 (Base 65)
Averaged from 22 records on January 31, 2013
WEATHER CONDITIONS BREAKOUT
WIND DIRECTION BREAKOUT
WEATHER BY HOUR - JANUARY 31, 2013
[ °C ]   °F
Local TimeTemperatureDewpointHumidityBarometerVisibilityWind DirectionWind SpeedGust SpeedPrecipitationEventsConditions
1:53 AM33.1 °F28.9 °F85 %30.27 in10.0 miNorth (10°)5.8 mphOvercast
2:53 AM34.0 °F30.0 °F85 %30.27 in10.0 miCalmOvercast
3:53 AM33.1 °F28.9 °F85 %30.27 in10.0 miNorth (10°)5.8 mphScattered Clouds
4:53 AM32.0 °F28.9 °F88 %30.28 in10.0 miNNE (20°)3.5 mphClear
5:53 AM32.0 °F28.9 °F88 %30.27 in10.0 miVariable4.6 mphClear
6:53 AM30.9 °F28.0 °F89 %30.26 in10.0 miNorth (360°)3.5 mphClear
7:53 AM32.0 °F28.9 °F88 %30.28 in10.0 miVariable3.5 mphClear
8:53 AM33.1 °F30.0 °F89 %30.29 in10.0 miNNE (30°)3.5 mphClear
9:53 AM33.1 °F30.0 °F89 %30.30 in10.0 miNorth (360°)4.6 mphClear
10:53 AM34.0 °F30.0 °F85 %30.30 in10.0 miNorth (360°)4.6 mphMostly Cloudy
11:53 AM35.1 °F30.9 °F85 %30.28 in10.0 miNorth (360°)5.8 mphMostly Cloudy
12:53 PM36.0 °F30.9 °F82 %30.26 in10.0 miNorth (10°)9.2 mphMostly Cloudy
1:53 PM36.0 °F30.9 °F82 %30.25 in10.0 miNorth (10°)5.8 mphOvercast
2:53 PM36.0 °F33.1 °F89 %30.25 in10.0 miNNW (340°)3.5 mph0.01 inRainLight Rain
3:53 PM37.9 °F34.0 °F86 %30.25 in10.0 miNorth (10°)4.6 mph0.00 inPartly Cloudy
4:53 PM35.1 °F32.0 °F89 %30.23 in10.0 miNorth (360°)8.1 mphPartly Cloudy
5:53 PM30.9 °F28.9 °F92 %30.22 in10.0 miCalmClear
6:53 PM32.0 °F28.9 °F88 %30.22 in10.0 miCalmClear
7:53 PM30.0 °F28.0 °F92 %30.22 in10.0 miNNW (330°)3.5 mphClear
8:53 PM28.0 °F26.1 °F92 %30.22 in8.0 miCalmClear
10:53 PM26.1 °F23.0 °F88 %30.23 in8.0 miNorth (360°)4.6 mphClear
11:53 PM26.1 °F24.1 °F92 %30.24 in7.0 miENE (70°)9.2 mphClear
Hourly data recorded from KEPH, located miles away from Quincy, Washington







STORIES FROM OUR PARTNERS